Location: ActonStarParty
(42.4766°N, 71.4538°W)
Time: 11:29:08
(UTC-04:00)

Daily predictions for brighter satellites

Satellite Brightness Start Highest point End
(mag) Time Altitude Azimuth Time Altitude Azimuth Time Altitude Azimuth
CZ-4C R/B 3.9 18:42:04 10° WSW 18:46:59 33° NW 18:52:29 10° NNE
Meteor 1-24 Rocket 3.9 18:43:24 10° NNW 18:49:00 81° W 18:54:23 10° S
Cosmos 1953 2.7 18:52:26 10° SSE 18:56:10 41° E 18:59:55 10° NNE
Cosmos 1674 4.1 18:53:38 10° NNE 18:56:29 19° ENE 18:59:19 10° ESE
Helios 1B rocket 3.6 18:56:14 10° NE 18:59:25 21° E 19:02:34 10° SE
Cosmos 1743 Rocket 4.3 18:55:58 10° NNE 18:59:55 31° ENE 19:03:49 10° SE
ATLAS 5 CENTAUR R/B 2.1 18:55:22 10° SW 19:00:09 77° NW 19:05:23 10° NNE
Cosmos 1470 4.1 19:00:37 10° SE 19:03:23 19° E 19:06:10 10° NE
Cosmos 1544 3.5 19:08:14 10° SSE 19:11:46 41° E 19:15:18 10° NNE
SAR-Lupe-4 3.5 19:08:45 10° SSE 19:12:19 80° ENE 19:15:54 10° N
Resurs 01 Rocket 2.0 19:12:06 10° SE 19:16:18 42° ENE 19:20:30 10° N
METEOR-M 4.2 19:11:36 10° SSE 19:16:48 55° ENE 19:22:01 10° N
COSMO-SKYMED 1 3.4 19:15:25 10° N 19:19:41 56° WNW 19:23:55 10° SSW
SL-8 R/B 3.7 19:16:59 10° WSW 19:21:46 83° SSE 19:26:10 12° ENE
NOSS 3-2 (A) 4.5 19:16:12 10° WSW 19:22:08 48° NW 19:28:38 10° NNE
SJ-6B 2.9 19:19:35 10° SSE 19:23:37 88° W 19:27:45 10° NNW
ALOS 3.1 19:20:25 10° SE 19:24:29 31° ENE 19:28:34 10° N
Cosmos 1076 Rocket 4.3 19:21:14 10° NNW 19:25:30 55° W 19:29:45 10° S
Cosmos 1484 Rocket 4.3 19:22:57 10° SSW 19:26:36 40° W 19:30:20 10° NNW
Nadezhda 4 Rocket 4.0 19:20:37 10° N 19:26:51 63° E 19:32:58 10° SSE
ASTEX 1 4.0 19:26:18 10° NNE 19:30:46 34° E 19:35:12 10° SSE
ATLAS CENTAUR R/B 4.0 19:26:14 10° SW 19:31:29 78° NW 19:49:03 10° NE
Cosmos 2151 4.0 19:29:31 10° NNE 19:33:05 26° ENE 19:34:34 21° ESE
SL-16 R/B 4.1 19:30:46 10° WSW 19:35:49 32° NW 19:40:53 10° N
Cosmos 1766 Rocket 4.5 19:32:04 10° NNW 19:36:19 51° W 19:40:31 10° S
GP-B 4.1 19:32:42 10° NNE 19:36:24 25° E 19:37:51 21° ESE
Meteor 1-29 3.3 19:33:35 10° NNE 19:36:57 42° E 19:40:16 10° S
Cosmos-2242 3.3 19:32:44 10° SSW 19:37:05 75° W 19:41:31 10° N
FENGYUN 3A 4.0 19:32:42 10° SE 19:37:45 43° ENE 19:42:51 10° N
Cosmos 1092 Rocket 4.0 19:31:42 10° N 19:37:48 55° ENE 19:43:47 10° SSE
Cosmos 839 Rocket 4.4 19:30:22 10° NNW 19:38:03 56° NE 19:43:03 17° SE
Cosmos 1758 4.2 19:37:31 10° SSW 19:41:31 54° W 19:45:35 10° N
Cosmos 2221 4.4 19:45:07 15° NE 19:45:07 15° NE 19:46:16 10° NE
CENTAUR R/B 2.5 19:38:38 10° SSW 19:44:34 63° ESE 19:51:15 10° NE
ISS -2.9 19:43:05 10° WSW 19:46:19 61° NNW 19:48:05 24° NE
Cosmos 2026 Rocket 4.4 19:41:57 10° N 19:47:36 37° ENE 19:51:17 20° SE
Cosmos 1655 Rocket 4.5 19:46:12 10° N 19:51:54 37° ENE 19:54:54 24° ESE
Abrixas 3.3 19:49:14 10° W 19:52:08 44° NNW 19:53:12 30° NNE
Meteor 1-28 Rocket 4.4 19:49:07 10° N 19:52:41 44° WNW 19:56:13 10° SW
GPS 2-04 Rocket1 3.7 19:49:51 10° WSW 19:52:48 26° S 19:53:27 25° SSE
Cosmos 2251 Rocket 4.0 19:48:40 10° SSE 19:53:24 36° ESE 19:58:10 10° NE
Cosmos 1634 Rocket 4.0 19:49:08 10° SSE 19:55:10 55° E 20:01:12 10° NNE
CZ-2D R/B 3.4 19:57:19 39° ESE 19:58:17 49° ENE 20:02:04 10° N
Cosmos 1328 3.9 19:57:01 10° N 20:00:55 51° E 20:01:42 43° ESE
Cosmos 1943 Rocket 2.7 19:56:06 10° N 20:01:20 38° ENE 20:02:50 32° E
Cosmos 1331 Rocket 4.3 19:56:31 10° N 20:01:38 45° ENE 20:03:18 34° ESE
SL-14 R/B 4.3 19:58:48 10° N 20:01:44 30° NE 20:01:44 30° NE
ERBS 3.3 20:02:45 10° NNW 20:05:53 35° NNE 20:05:53 35° NNE
H-2A R/B 2.7 20:06:03 49° SE 20:06:49 61° ENE 20:10:37 10° N
Cosmos 1500 Rocket 3.8 20:03:28 10° NNW 20:07:54 69° W 20:12:20 10° S
Cosmos 2195 Rocket 4.5 20:03:52 10° N 20:10:11 64° E 20:15:09 17° SSE
Cosmos 1842 Rocket 3.8 20:05:55 10° SSW 20:10:13 68° W 20:14:35 10° N
Helios 1A 3.6 20:06:14 10° S 20:10:22 56° W 20:14:32 10° NNW
Cosmos 2369 Rocket 2.2 20:07:07 10° NNW 20:12:48 80° WSW 20:16:54 20° SSE
Cosmos 1943 3.2 20:09:23 10° SSW 20:15:02 83° WNW 20:20:42 10° NNE
Spot 2 Rocket 4.4 20:11:45 10° S 20:16:36 48° W 20:21:29 10° NNW
Cosmos 1733 4.2 20:23:04 10° SSW 20:26:49 48° W 20:30:34 10° N
Cosmos 2263 4.2 20:21:09 10° NNW 20:26:58 85° WSW 20:29:26 36° SSE
Envisat 4.0 20:28:38 31° NE 20:28:38 31° NE 20:32:07 10° N
Cosmos 158 Rocket 4.2 20:23:11 10° SSW 20:28:00 63° WNW 20:32:52 10° NNE
USA 215 3.1 20:25:37 21° NE 20:30:16 79° SE 20:36:48 10° SW
Gbstr 26 Del rocket 3.6 20:26:27 10° WSW 20:30:59 67° NNW 20:32:55 38° NE
Helios 1B rocket 4.2 20:31:07 10° N 20:34:47 32° WNW 20:38:26 10° SW
SL-24 R/B - RUBIN 2 4.4 20:30:21 10° NW 20:37:04 86° WSW 20:38:57 49° SSE
CZ-4B DEB 4.5 20:39:43 33° W 20:39:43 33° W 20:42:40 10° NNW
Resurs 01 Rocket 4.2 20:49:50 10° SW 20:52:57 19° W 20:56:05 10° NW
ERS-1 Rocket 3.5 20:56:03 48° N 20:56:03 48° N 20:59:44 10° N
Cosmos 2058 4.0 20:52:38 10° NNW 20:55:45 43° NW 20:55:45 43° NW
Cosmos 2180 Rocket 4.3 21:00:27 80° SSE 21:00:48 87° E 21:06:59 10° N
UNK 4.4 20:42:09 10° WNW 21:01:01 66° NNE 21:02:05 58° ENE
Cosmos 1656 Rocket 4.4 20:56:15 10° NNW 21:00:08 42° NNE 21:00:08 42° NNE
ALOS 4.1 20:58:30 13° SSW 21:01:53 28° W 21:05:54 10° NW
Meteor 2-1 Rocket 4.4 20:58:08 16° SSW 21:02:55 72° WNW 21:08:50 10° N
Cosmos 2279 Rocket 4.3 21:09:23 17° SSW 21:14:13 63° W 21:20:23 10° N
CENTAUR R/B 4.2 21:30:10 10° W 21:35:44 32° NW 21:41:57 10° NNE
Cosmos 1943 Rocket 3.7 21:40:03 10° NW 21:44:23 31° W 21:44:23 31° W
USA 215 4.3 22:13:01 40° NNW 22:13:01 40° NNW 22:18:55 10° W
